Regional Weather Roundup
Issued by NWS Northern Indiana

Home | Current Version | Previous Version | Graphics & Text | Print | Product List | Glossary On
Versions: 1 2 3 4 5 6 7 8 9 10 11 12 13 14 15 16 17 18 19 20 21 22 23 24 25 26 27 28 29 30 31 32 33 34 35 36 37 38 39 40 41 42 43 44 45 46 47 48 49 50
000
ASUS43 KIWX 282310
RWRIWX

KIWX WEATHER ROUNDUP
NATIONAL WEATHER SERVICE NORTHERN INDIANA
700 PM EDT THU JUL 28 2016

NOTE: "FAIR" INDICATES FEW OR NO CLOUDS BELOW 12,000 FEET WITH NO
SIGNIFICANT WEATHER AND/OR OBSTRUCTIONS TO VISIBILITY.

* THESE STATIONS ARE NOT UNDER NWS QUALITY CONTROL. THEY ALSO MAY NOT
  REPORT WEATHER SUCH AS PRECIPITATION OR FOG.

INZ001>027-290000-
NORTHERN INDIANA

CITY           SKY/WX    TMP DP  RH WIND       PRES   REMARKS
GARY*          LGT RAIN  75  73  94 N5        29.88F
VALPARAISO     CLOUDY    76  70  82 N8        29.89F
MICHIGAN CITY* CLOUDY    77  70  78 CALM      29.90F
LAPORTE*       CLOUDY    79  69  71 NE8       29.90F
KNOX*          PTSUNNY   79  61  53 NE14G20   29.89S
SOUTH BEND     TSTM      70  68  93 N10       29.93F
ELKHART*       LGT RAIN  68  66  94 W7        29.94R
GOSHEN         PTSUNNY   83  65  54 NW17G23   29.91R
MONTICELLO*    SUNNY     82  67  60 CALM      29.87F
LOGANSPORT*    MOSUNNY   82  68  61 W5        29.89S
ROCHESTER*     SUNNY     86  68  54 NW6       29.89S
WARSAW*        CLOUDY    82  68  61 CALM      29.89R
ANGOLA*        SUNNY     82  77  83 VRB6      29.90S
FORT WAYNE     LGT RAIN  82  67  60 N7        29.88R
HUNTINGTON*    SUNNY     83  65  53 CALM      29.88R
PERU/GRISSOM   SUNNY     86  66  52 W9        29.87S
MARION*          N/A     83  66  55 W3        29.89S HAZE

$$
INZ028>050-290000-
CENTRAL INDIANA

CITY           SKY/WX    TMP DP  RH WIND       PRES   REMARKS
LAFAYETTE      MOSUNNY   82  71  69 NW5       29.86F
KOKOMO*        SUNNY     86  64  48 NW7       29.88S
MUNCIE*        MOSUNNY   86  67  52 NW5       29.88R
INDIANAPOLIS   PTSUNNY   84  66  54 NW12      29.88R

$$
MIZ043>046-050>051-056>058-064>065-071>073-077>080-290000-
SOUTHWEST LOWER MICHIGAN

CITY           SKY/WX    TMP DP  RH WIND       PRES   REMARKS
BATTLE CREEK   CLOUDY    80  65  59 N6        29.92R
BENTON HARBOR  CLOUDY    79  67  66 S3        29.90F
COLDWATER*     MOSUNNY   81  66  60 N3        29.90S
HILLSDALE*     MOSUNNY   82  62  49 CALM      29.90S
HOLLAND        CLOUDY    74  67  78 NE5       29.93S
GRAND RAPIDS   TSTM      73  67  81 NW15      29.94R
KALAMAZOO      LGT RAIN  75  68  78 W9        29.92R
STURGIS*       PTSUNNY   79  69  71 N3        29.89S
THREE RIVERS*  FAIR      77  68  72 NW8       29.91R

$$
OHZ001>008-015>018-024>025-290000-
NORTHWEST OHIO

CITY           SKY/WX    TMP DP  RH WIND       PRES   REMARKS
DEFIANCE       MOSUNNY   87  64  46 NE3       29.88R
FINDLAY        PTSUNNY   87  64  46 N9        29.87R
TOLEDO EXPRESS MOSUNNY   83  68  60 NE6       29.88R
TOLEDO METCALF MOSUNNY   84  69  60 E5        29.88R
LIMA           SUNNY     85  66  53 NE5       29.88R

$$
AND FOR LAKE MICHIGAN COASTAL AND OPEN LAKE BUOY OBSERVATIONS

STATION/POSITION TEMP    WIND        PRES    VSBY  WAVE
                 AIR SEA DIR/SP/G                  HT/PER
                 (F)     (DEG/KT/KT) (MB)    (MI)  (FT/S)
CALUMET HARBOR           300/  2/  3 1012.3S
MICHIGAN CITY     77     360/ 12/ 13   N/A
BURNS HARBOR                         1012.9R
SAINT JOSEPH      80     180/  2/  3 1012.9F
SOUTH LAKE BUOY   75 77   50/ 14/ 17 1011.5F         2/ 6
4 MI NW BRIDGMAN  76 78  140/  8/ 10 1012.4S         1
MICHIGAN CITY     77 77   60/ 10/ 12   N/A           1/ 2

$$
&&




USA.gov is the U.S. government's official web portal to all federal, state and local government web resources and services.